Regional Weather Roundup
Issued by NWS

Home | Current Version | Previous Version | Graphics & Text | Print | Product List | Glossary On
Versions: 1 2 3 4 5 6 7 8 9 10 11 12 13 14 15 16 17 18 19 20 21 22 23 24 25 26 27 28 29 30 31 32 33 34 35 36 37 38 39 40 41 42 43 44 45 46 47 48 49 50
000
ASUS43 KFSD 190310
RWRSD

WEATHER ROUNDUP FOR SOUTH DAKOTA
NATIONAL WEATHER SERVICE SIOUX FALLS SD
900 PM CST THU JAN 18 2018

NOTE: "FAIR" INDICATES FEW OR NO CLOUDS BELOW 12,000 FEET WITH NO
SIGNIFICANT WEATHER AND/OR OBSTRUCTIONS TO VISIBILITY.


SDZ001>005-009-010-012>017-190400-
NORTHWEST AND NORTH CENTRAL SOUTH DAKOTA

CITY           SKY/WX    TMP DP  RH WIND       PRES   REMARKS
BUFFALO          N/A     43  28  55 S7        29.63F
FAITH            N/A     37  27  67 W6        29.70S
MOBRIDGE       CLOUDY    32  26  78 SE6       29.66F WCI  26
$$

SDZ012>016-024>037-041>051-057-063-072>074-190400-
SOUTHWEST AND SOUTH CENTRAL SOUTH DAKOTA

CITY           SKY/WX    TMP DP  RH WIND       PRES   REMARKS
RAPID CTY ARPT CLOUDY    36  26  67 W3        29.72F
PIERRE         CLOUDY    30  26  85 S3        29.71F
CUSTER         CLOUDY    46  23  40 W12G23    29.83S
ELLSWORTH AFB  CLOUDY    42  26  53 CALM      29.71F
PHILIP         CLOUDY    34  28  79 CALM      29.72F
PINE RIDGE     MOCLDY    38  30  73 W8        29.79F
SPEARFISH        N/A     54  27  35 SW16G26   29.73F
WINNER         FAIR      43  31  62 SW12      29.75F
$$

SDZ004>011-016>023-039-040-190400-
NORTHEAST SOUTH DAKOTA

CITY           SKY/WX    TMP DP  RH WIND       PRES   REMARKS
ABERDEEN       MOCLDY    31  26  82 S6        29.70F WCI  25
WATERTOWN      CLOUDY    30  26  85 SE7       29.71F WCI  23
BROOKINGS      CLOUDY    31  28  89 S6        29.76F WCI  25
SISSETON         N/A     36  26  67 S7        29.66F
$$

SDZ017-020-022-023-036>040-048>070-190400-
SOUTHEAST SOUTH DAKOTA

CITY           SKY/WX    TMP DP  RH WIND       PRES   REMARKS
SIOUX FALLS    CLOUDY    35  28  75 SW6       29.79S
HURON          CLOUDY    31  27  85 S6        29.73F WCI  25
CHAMBERLAIN    CLOUDY    36  32  85 SW3       29.75F
MITCHELL       CLOUDY    34  29  82 S7        29.77F WCI  28
YANKTON        CLOUDY    32  26  78 CALM      29.81F
$$

ABBREVIATIONS USED IN REMARKS
   TC - TEMPERATURE IN CELSIUS
  WCI - WIND CHILL INDEX
   HX - HEAT INDEX
  VSB - VISIBILITY





USA.gov is the U.S. government's official web portal to all federal, state and local government web resources and services.